Retour au catalogue

STARLINK-30205

ActifCommunicationsVLEO
NORAD 57408·PAYLOAD·🇺🇸 United States

Lancé Jul 20, 2023 depuis Vandenberg Space Force Base

Loading…

Prochains Passages (prochaines 24 heures)

TLE

FraisSource: CelesTrak SupGP

Époque: Sep 14, 2026, 22:31 UTC

1 57408C 23102E   26257.93868056  .00070921  00000+0  22380-2 0  2571
2 57408  43.0016 259.0461 0004357 102.4051 203.7600 15.31989515    15

Suivez STARLINK-30205 en temps réel avec AllMySat

Download on the App Store